FDX462 CYVR-KSLC

Flight info

Callsign FDX462
Flight time 1h 46m
Altitude 37000
Route SEA DCT SUMMA J54 BOI DCT BYI SKEES6
Aircraft MD11/H-SDE1E2E3FGHIJ2J3J4J5M1RWXY/LB1D1

Departure

Time 2026-04-30 20:15
Airport Vancouver International Airport (CYVR)

Arrival

Time 2026-04-30 22:02
Airport Salt Lake City International Airport (KSLC)
Time Latitude Longitude Altitude Speed Heading
2026-04-30 19:41 49.18721 -123.15483 31 ft 0 kts
2026-04-30 19:44 49.18716 -123.15483 30 ft 0 kts 360°
2026-04-30 20:07 49.18714 -123.15483 30 ft 3 kts
2026-04-30 20:07 49.18669 -123.15478 29 ft 4 kts 308°
2026-04-30 20:08 49.18666 -123.15480 30 ft 0 kts 268°
2026-04-30 20:13 49.18666 -123.15483 30 ft 2 kts 268°
2026-04-30 20:13 49.18663 -123.15520 37 ft 4 kts 259°
2026-04-30 20:13 49.18648 -123.15573 30 ft 7 kts 239°
2026-04-30 20:13 49.18616 -123.15651 29 ft 9 kts 243°
2026-04-30 20:14 49.18590 -123.15722 31 ft 9 kts 224°
2026-04-30 20:14 49.18526 -123.15756 30 ft 9 kts 187°
2026-04-30 20:14 49.18467 -123.15781 32 ft 10 kts 208°
2026-04-30 20:14 49.18442 -123.15868 33 ft 6 kts 283°
2026-04-30 20:15 49.18456 -123.15967 33 ft 19 kts 280°
2026-04-30 20:15 49.18540 -123.16690 28 ft 119 kts 280°
2026-04-30 20:15 49.18727 -123.18362 150 ft 187 kts 279°
2026-04-30 20:15 49.18928 -123.20356 1189 ft 189 kts 277°
2026-04-30 20:16 49.19097 -123.22376 2328 ft 200 kts 276°
2026-04-30 20:16 49.19159 -123.23744 3185 ft 182 kts 268°
2026-04-30 20:16 49.19067 -123.25658 4145 ft 197 kts 261°
2026-04-30 20:16 49.18883 -123.27980 4332 ft 235 kts 261°
2026-04-30 20:17 49.18668 -123.30540 5003 ft 244 kts 261°
2026-04-30 20:17 49.18401 -123.33111 5988 ft 246 kts 250°
2026-04-30 20:17 49.17543 -123.35318 6981 ft 243 kts 221°
2026-04-30 20:17 49.16096 -123.36592 7858 ft 243 kts 193°
2026-04-30 20:18 49.14409 -123.36611 8729 ft 247 kts 165°
2026-04-30 20:18 49.12880 -123.35383 9563 ft 253 kts 143°
2026-04-30 20:18 49.11518 -123.33619 10363 ft 259 kts 140°
2026-04-30 20:18 49.10135 -123.31757 10891 ft 278 kts 140°
2026-04-30 20:19 49.08598 -123.29697 11032 ft 309 kts 140°
2026-04-30 20:19 49.06895 -123.27435 11182 ft 340 kts 141°
2026-04-30 20:19 49.04963 -123.25191 11671 ft 353 kts 147°
2026-04-30 20:19 49.02864 -123.23183 12542 ft 358 kts 151°
2026-04-30 20:20 49.00656 -123.21400 13361 ft 363 kts 155°
2026-04-30 20:20 48.98351 -123.19764 14162 ft 367 kts 157°
2026-04-30 20:20 48.95991 -123.18226 14901 ft 370 kts 158°
2026-04-30 20:20 48.93603 -123.16746 15644 ft 373 kts 159°
2026-04-30 20:21 48.91183 -123.15285 16367 ft 376 kts 159°
2026-04-30 20:21 48.88746 -123.13834 17081 ft 378 kts 160°
2026-04-30 20:21 48.86274 -123.12371 17788 ft 381 kts 160°
2026-04-30 20:21 48.83821 -123.10923 18460 ft 384 kts 160°
2026-04-30 20:22 48.81316 -123.09447 19031 ft 388 kts 160°
2026-04-30 20:22 48.78795 -123.07963 19540 ft 392 kts 159°
2026-04-30 20:22 48.76719 -123.06743 19964 ft 395 kts 159°
2026-04-30 20:22 48.75593 -123.06080 20197 ft 396 kts 159°
2026-04-30 20:23 48.73009 -123.04562 20717 ft 400 kts 159°
2026-04-30 20:23 48.70408 -123.03035 21250 ft 403 kts 159°
2026-04-30 20:23 48.67783 -123.01496 21791 ft 406 kts 159°
2026-04-30 20:23 48.65135 -122.99945 22334 ft 410 kts 159°
2026-04-30 20:24 48.62464 -122.98382 22888 ft 414 kts 159°
2026-04-30 20:24 48.59775 -122.96811 23450 ft 417 kts 159°
2026-04-30 20:24 48.58993 -122.96354 23614 ft 418 kts 159°
2026-04-30 20:24 48.58262 -122.95927 23755 ft 419 kts 159°
2026-04-30 20:25 48.53743 -122.93295 24469 ft 427 kts 160°
2026-04-30 20:25 48.50938 -122.91662 24956 ft 431 kts 160°
2026-04-30 20:26 48.45293 -122.88380 25918 ft 439 kts 160°
2026-04-30 20:26 48.39544 -122.85057 26892 ft 446 kts 161°
2026-04-30 20:26 48.36625 -122.83382 27339 ft 450 kts 161°
2026-04-30 20:27 48.30702 -122.79979 28248 ft 460 kts 161°
2026-04-30 20:27 48.24675 -122.76511 29145 ft 468 kts 161°
2026-04-30 20:28 48.18547 -122.72990 30004 ft 475 kts 161°
2026-04-30 20:28 48.12352 -122.69438 30617 ft 484 kts 161°
2026-04-30 20:29 48.06025 -122.65820 31296 ft 488 kts 161°
2026-04-30 20:30 47.96553 -122.60419 32597 ft 484 kts 161°
2026-04-30 20:30 47.87104 -122.55057 33722 ft 484 kts 161°
2026-04-30 20:31 47.77749 -122.49766 34918 ft 477 kts 161°
2026-04-30 20:32 47.68462 -122.44538 35628 ft 479 kts 161°
2026-04-30 20:32 47.62187 -122.41023 36151 ft 478 kts 161°
2026-04-30 20:33 47.59070 -122.39290 36407 ft 478 kts 161°
2026-04-30 20:33 47.52881 -122.35847 36907 ft 477 kts 161°
2026-04-30 20:33 47.49788 -122.34124 37105 ft 478 kts 160°
2026-04-30 20:34 47.43456 -122.30919 37161 ft 482 kts 165°
2026-04-30 20:35 47.33716 -122.27036 37165 ft 483 kts 166°
2026-04-30 20:35 47.23959 -122.23203 37199 ft 485 kts 166°
2026-04-30 20:36 47.21867 -122.22370 37150 ft 485 kts 166°
2026-04-30 20:37 47.12119 -122.18488 37142 ft 483 kts 166°
2026-04-30 20:37 47.05617 -122.15907 37155 ft 485 kts 166°
2026-04-30 20:38 46.99097 -122.13326 37157 ft 486 kts 166°
2026-04-30 20:38 46.92564 -122.10747 37149 ft 486 kts 166°
2026-04-30 20:39 46.82768 -122.06892 37141 ft 489 kts 166°
2026-04-30 20:40 46.72952 -122.03044 37132 ft 489 kts 166°
2026-04-30 20:40 46.66452 -121.99737 37132 ft 490 kts 154°
2026-04-30 20:41 46.60863 -121.94150 37132 ft 491 kts 136°
2026-04-30 20:41 46.58538 -121.90488 37129 ft 491 kts 128°
2026-04-30 20:41 46.54869 -121.82161 37132 ft 492 kts 118°
2026-04-30 20:42 46.51623 -121.73464 37156 ft 492 kts 117°
2026-04-30 20:43 46.46589 -121.60419 37154 ft 493 kts 119°
2026-04-30 20:43 46.43151 -121.51828 37154 ft 493 kts 119°
2026-04-30 20:44 46.37993 -121.39004 37156 ft 493 kts 119°
2026-04-30 20:45 46.31061 -121.21812 37169 ft 494 kts 119°
2026-04-30 20:45 46.27586 -121.13232 37164 ft 494 kts 119°
2026-04-30 20:46 46.20611 -120.96096 37174 ft 495 kts 118°
2026-04-30 20:47 46.15344 -120.83225 37167 ft 496 kts 118°
2026-04-30 20:48 46.10065 -120.70385 37165 ft 497 kts 118°
2026-04-30 20:48 46.06528 -120.61814 37162 ft 498 kts 118°
2026-04-30 20:49 46.02961 -120.53281 37160 ft 498 kts 119°
2026-04-30 20:50 45.97613 -120.40508 37160 ft 498 kts 118°
2026-04-30 20:50 45.94041 -120.31949 37156 ft 499 kts 118°
2026-04-30 20:51 45.90460 -120.23389 37156 ft 499 kts 118°
2026-04-30 20:51 45.85082 -120.10589 37155 ft 499 kts 119°
2026-04-30 20:52 45.82092 -120.03494 37158 ft 501 kts 118°
2026-04-30 20:53 45.76668 -119.90675 37151 ft 502 kts 118°
2026-04-30 20:53 45.73038 -119.82134 37154 ft 502 kts 118°
2026-04-30 20:54 45.67561 -119.69354 37154 ft 504 kts 118°
2026-04-30 20:55 45.62104 -119.56593 37156 ft 504 kts 118°
2026-04-30 20:55 45.58447 -119.48054 37157 ft 504 kts 118°
2026-04-30 20:56 45.52939 -119.35240 37161 ft 506 kts 118°
2026-04-30 20:57 45.47406 -119.22433 37158 ft 506 kts 118°
2026-04-30 20:57 45.43685 -119.13852 37162 ft 506 kts 118°
2026-04-30 20:58 45.38131 -119.01087 37155 ft 508 kts 119°
2026-04-30 20:58 45.34399 -118.92549 37151 ft 508 kts 119°
2026-04-30 20:59 45.28783 -118.79748 37175 ft 509 kts 119°
2026-04-30 21:00 45.21203 -118.62709 37168 ft 510 kts 119°
2026-04-30 21:01 45.15538 -118.49938 37182 ft 510 kts 119°
2026-04-30 21:02 45.12377 -118.42827 37180 ft 510 kts 119°
2026-04-30 21:02 45.12238 -118.42516 37179 ft 510 kts 119°
2026-04-30 21:03 45.10342 -118.38261 37185 ft 509 kts 119°
2026-04-30 21:03 45.06563 -118.29802 37197 ft 507 kts 119°
2026-04-30 21:04 45.02756 -118.21302 36702 ft 508 kts 122°
2026-04-30 21:04 45.00869 -118.17093 36938 ft 509 kts 124°
2026-04-30 21:04 44.97088 -118.08673 36999 ft 507 kts 124°
2026-04-30 21:05 44.93310 -118.00298 37001 ft 510 kts 132°
2026-04-30 21:05 44.89446 -117.91801 37001 ft 518 kts 127°
2026-04-30 21:06 44.85452 -117.83213 36978 ft 525 kts 137°
2026-04-30 21:06 44.83114 -117.79362 37069 ft 510 kts 143°
2026-04-30 21:06 44.80566 -117.75868 36998 ft 512 kts 147°
2026-04-30 21:07 44.75204 -117.69215 37005 ft 516 kts 147°
2026-04-30 21:07 44.69787 -117.62460 37020 ft 524 kts 146°
2026-04-30 21:08 44.64345 -117.55506 37001 ft 533 kts 146°
2026-04-30 21:08 44.58855 -117.48430 36998 ft 537 kts 146°
2026-04-30 21:09 44.53361 -117.41367 36990 ft 544 kts 146°
2026-04-30 21:09 44.50524 -117.37743 37546 ft 548 kts 139°
2026-04-30 21:09 44.47728 -117.34177 37270 ft 536 kts 136°
2026-04-30 21:10 44.45050 -117.30755 37194 ft 522 kts 136°
2026-04-30 21:10 44.42380 -117.27344 37198 ft 520 kts 136°
2026-04-30 21:10 44.37028 -117.20520 37192 ft 520 kts 136°
2026-04-30 21:11 44.31748 -117.13857 37185 ft 520 kts 137°
2026-04-30 21:11 44.29023 -117.10417 36873 ft 511 kts 140°
2026-04-30 21:11 44.26399 -117.07101 36976 ft 507 kts 140°
2026-04-30 21:12 44.21257 -117.00623 36992 ft 492 kts 139°
2026-04-30 21:12 44.16172 -116.94225 37299 ft 501 kts 137°
2026-04-30 21:13 44.10937 -116.87645 37212 ft 512 kts 137°
2026-04-30 21:13 44.05613 -116.80973 37194 ft 517 kts 137°
2026-04-30 21:14 44.00266 -116.74289 37187 ft 517 kts 137°
2026-04-30 21:14 43.94917 -116.67624 37180 ft 518 kts 137°
2026-04-30 21:15 43.89527 -116.60922 37171 ft 521 kts 137°
2026-04-30 21:15 43.84121 -116.54213 37167 ft 521 kts 137°
2026-04-30 21:16 43.78713 -116.47520 37169 ft 521 kts 138°
2026-04-30 21:16 43.73284 -116.40833 37165 ft 522 kts 138°
2026-04-30 21:17 43.67842 -116.34184 37166 ft 522 kts 138°
2026-04-30 21:17 43.62396 -116.27518 37157 ft 522 kts 138°
2026-04-30 21:18 43.56992 -116.20900 37176 ft 522 kts 138°
2026-04-30 21:18 43.52175 -116.13463 37173 ft 519 kts 121°
2026-04-30 21:19 43.48730 -116.04746 37168 ft 518 kts 114°
2026-04-30 21:19 43.45511 -115.95846 37161 ft 520 kts 115°
2026-04-30 21:20 43.42107 -115.87059 37147 ft 520 kts 117°
2026-04-30 21:20 43.38601 -115.78355 37140 ft 520 kts 117°
2026-04-30 21:21 43.35070 -115.69661 37146 ft 521 kts 118°
2026-04-30 21:22 43.29765 -115.56609 37140 ft 521 kts 117°
2026-04-30 21:23 43.22693 -115.39264 37138 ft 522 kts 117°
2026-04-30 21:23 43.17468 -115.26520 37133 ft 521 kts 117°
2026-04-30 21:24 43.14556 -115.19449 37142 ft 521 kts 117°
2026-04-30 21:24 43.11682 -115.12531 37141 ft 520 kts 118°
2026-04-30 21:25 43.06325 -114.99692 37160 ft 519 kts 118°
2026-04-30 21:26 43.00981 -114.86842 37179 ft 519 kts 118°
2026-04-30 21:27 42.95612 -114.73981 37185 ft 519 kts 118°
2026-04-30 21:27 42.92027 -114.65429 37183 ft 519 kts 118°
2026-04-30 21:28 42.86640 -114.52622 37170 ft 519 kts 118°
2026-04-30 21:29 42.81246 -114.39859 37182 ft 517 kts 118°
2026-04-30 21:30 42.72279 -114.18764 37107 ft 517 kts 119°
2026-04-30 21:31 42.63180 -113.97661 37145 ft 518 kts 119°
2026-04-30 21:32 42.57303 -113.85386 37182 ft 519 kts 131°
2026-04-30 21:32 42.52246 -113.78427 37181 ft 516 kts 137°
2026-04-30 21:33 42.44436 -113.68347 37170 ft 518 kts 136°
2026-04-30 21:34 42.40157 -113.62664 37153 ft 518 kts 135°
2026-04-30 21:34 42.32472 -113.52369 37130 ft 518 kts 135°
2026-04-30 21:35 42.27334 -113.45521 37118 ft 519 kts 136°
2026-04-30 21:35 42.22187 -113.38720 37120 ft 516 kts 136°
2026-04-30 21:36 42.17056 -113.31949 36907 ft 518 kts 136°
2026-04-30 21:37 42.09303 -113.21730 35203 ft 520 kts 136°
2026-04-30 21:37 42.06716 -113.18327 34592 ft 522 kts 136°
2026-04-30 21:37 42.04111 -113.14905 33942 ft 523 kts 135°
2026-04-30 21:37 42.01512 -113.11496 33227 ft 521 kts 136°
2026-04-30 21:38 41.98918 -113.08098 32616 ft 519 kts 136°
2026-04-30 21:38 41.96344 -113.04730 31996 ft 516 kts 136°
2026-04-30 21:38 41.93772 -113.01366 31348 ft 513 kts 136°
2026-04-30 21:38 41.91220 -112.98032 30700 ft 511 kts 136°
2026-04-30 21:39 41.88713 -112.94762 30005 ft 506 kts 136°
2026-04-30 21:39 41.86180 -112.91464 29242 ft 499 kts 136°
2026-04-30 21:39 41.83705 -112.88243 28560 ft 493 kts 136°
2026-04-30 21:39 41.81250 -112.85054 27913 ft 487 kts 136°
2026-04-30 21:40 41.78920 -112.82029 27280 ft 482 kts 135°
2026-04-30 21:40 41.76468 -112.78850 26627 ft 477 kts 135°
2026-04-30 21:40 41.74065 -112.75738 26019 ft 471 kts 135°
2026-04-30 21:40 41.71718 -112.72702 25378 ft 466 kts 135°
2026-04-30 21:41 41.69398 -112.69710 24765 ft 461 kts 135°
2026-04-30 21:41 41.67090 -112.66753 24117 ft 457 kts 135°
2026-04-30 21:41 41.64839 -112.63873 23431 ft 451 kts 135°
2026-04-30 21:41 41.62587 -112.60987 22709 ft 446 kts 135°
2026-04-30 21:42 41.60364 -112.58134 22042 ft 441 kts 135°
2026-04-30 21:42 41.58166 -112.55312 21399 ft 436 kts 135°
2026-04-30 21:42 41.56024 -112.52561 20677 ft 431 kts 136°
2026-04-30 21:42 41.54249 -112.50285 20276 ft 436 kts 135°
2026-04-30 21:43 41.54204 -112.50228 20261 ft 435 kts 135°
2026-04-30 21:43 41.52018 -112.47529 19654 ft 426 kts 137°
2026-04-30 21:43 41.49821 -112.44917 19024 ft 420 kts 137°
2026-04-30 21:43 41.47631 -112.42358 18392 ft 416 kts 137°
2026-04-30 21:44 41.45442 -112.39857 17702 ft 411 kts 141°
2026-04-30 21:44 41.43063 -112.37755 17067 ft 409 kts 149°
2026-04-30 21:44 41.40563 -112.35985 16477 ft 405 kts 152°
2026-04-30 21:44 41.38043 -112.34359 15901 ft 400 kts 154°
2026-04-30 21:45 41.35543 -112.32783 15331 ft 397 kts 153°
2026-04-30 21:45 41.33057 -112.31207 14765 ft 392 kts 153°
2026-04-30 21:45 41.30614 -112.29643 14207 ft 388 kts 153°
2026-04-30 21:45 41.28190 -112.28077 13643 ft 384 kts 153°
2026-04-30 21:46 41.25834 -112.26544 13146 ft 380 kts 153°
2026-04-30 21:46 41.23460 -112.24989 12975 ft 381 kts 155°
2026-04-30 21:46 41.21078 -112.23433 13041 ft 381 kts 154°
2026-04-30 21:46 41.18711 -112.21890 13045 ft 378 kts 152°
2026-04-30 21:47 41.16349 -112.20352 13047 ft 378 kts 152°
2026-04-30 21:47 41.13986 -112.18813 13053 ft 378 kts 152°
2026-04-30 21:47 41.11623 -112.17274 13046 ft 378 kts 153°
2026-04-30 21:47 41.09260 -112.15739 13046 ft 378 kts 154°
2026-04-30 21:48 41.06784 -112.14547 13043 ft 380 kts 164°
2026-04-30 21:48 41.04205 -112.13800 12970 ft 380 kts 168°
2026-04-30 21:48 41.01581 -112.13228 12883 ft 381 kts 171°
2026-04-30 21:48 40.98957 -112.12705 12374 ft 380 kts 170°
2026-04-30 21:49 40.96334 -112.12183 11985 ft 380 kts 171°
2026-04-30 21:49 40.93736 -112.11655 11615 ft 377 kts 171°
2026-04-30 21:49 40.91182 -112.11138 11217 ft 377 kts 172°
2026-04-30 21:49 40.88573 -112.10737 11143 ft 373 kts 174°
2026-04-30 21:50 40.85973 -112.10412 11139 ft 375 kts 174°
2026-04-30 21:50 40.83410 -112.10114 11128 ft 374 kts 174°
2026-04-30 21:50 40.80774 -112.09812 11141 ft 375 kts 174°
2026-04-30 21:50 40.78214 -112.09518 11132 ft 374 kts 174°
2026-04-30 21:51 40.75612 -112.09217 11113 ft 376 kts 174°
2026-04-30 21:51 40.73019 -112.08914 11117 ft 375 kts 174°
2026-04-30 21:51 40.70419 -112.08586 11125 ft 375 kts 171°
2026-04-30 21:51 40.67926 -112.07658 11097 ft 366 kts 154°
2026-04-30 21:52 40.65766 -112.06089 11033 ft 344 kts 146°
2026-04-30 21:52 40.63824 -112.04371 10961 ft 326 kts 144°
2026-04-30 21:52 40.62014 -112.02700 10890 ft 309 kts 143°
2026-04-30 21:52 40.60294 -112.01119 10839 ft 298 kts 143°
2026-04-30 21:53 40.58811 -111.99770 10785 ft 297 kts 144°
2026-04-30 21:53 40.58508 -111.99498 10777 ft 297 kts 143°
2026-04-30 21:53 40.56801 -111.97963 10718 ft 299 kts 143°
2026-04-30 21:53 40.55084 -111.96433 10649 ft 297 kts 144°
2026-04-30 21:54 40.53405 -111.94895 10585 ft 295 kts 138°
2026-04-30 21:54 40.52121 -111.92831 10482 ft 291 kts 120°
2026-04-30 21:54 40.51385 -111.90407 10110 ft 285 kts 95°
2026-04-30 21:54 40.51652 -111.87908 9555 ft 275 kts 62°
2026-04-30 21:55 40.52837 -111.86019 9072 ft 268 kts 33°
2026-04-30 21:55 40.54555 -111.85151 8604 ft 266 kts
2026-04-30 21:55 40.56358 -111.85437 8156 ft 263 kts 339°
2026-04-30 21:55 40.57825 -111.86731 7739 ft 251 kts 313°
2026-04-30 21:56 40.58868 -111.88493 7387 ft 238 kts 306°
2026-04-30 21:56 40.59770 -111.90246 7018 ft 225 kts 306°
2026-04-30 21:56 40.60608 -111.91893 6671 ft 207 kts 305°
2026-04-30 21:56 40.61012 -111.92684 6490 ft 205 kts 305°
2026-04-30 21:57 40.61044 -111.92745 6480 ft 204 kts 305°
2026-04-30 21:58 40.61913 -111.94158 6262 ft 189 kts 317°
2026-04-30 21:58 40.62901 -111.95085 6158 ft 168 kts 333°
2026-04-30 21:58 40.63993 -111.95557 6224 ft 164 kts 349°
2026-04-30 21:58 40.65137 -111.95749 6260 ft 166 kts 353°
2026-04-30 21:59 40.66293 -111.95916 6267 ft 167 kts 352°
2026-04-30 21:59 40.67442 -111.96116 6234 ft 165 kts 350°
2026-04-30 21:59 40.68580 -111.96302 6076 ft 167 kts 353°
2026-04-30 22:00 40.70883 -111.96493 5685 ft 164 kts 354°
2026-04-30 22:00 40.73126 -111.96807 5127 ft 159 kts 350°
2026-04-30 22:00 40.74230 -111.96955 4911 ft 159 kts 355°
2026-04-30 22:01 40.75344 -111.97068 4694 ft 160 kts 354°
2026-04-30 22:01 40.76462 -111.97195 4501 ft 161 kts 351°
2026-04-30 22:01 40.77564 -111.97324 4299 ft 157 kts 353°
2026-04-30 22:01 40.78570 -111.97442 4235 ft 122 kts 356°
2026-04-30 22:02 40.79216 -111.97518 4239 ft 65 kts 355°
2026-04-30 22:02 40.79522 -111.97646 4232 ft 24 kts 325°
2026-04-30 22:02 40.79575 -111.97725 4232 ft 9 kts 297°
2026-04-30 22:02 40.79575 -111.97755 4232 ft 1 kts 244°
2026-04-30 22:03 40.79570 -111.97759 4233 ft 1 kts 218°
2026-04-30 22:03 40.79547 -111.97766 4233 ft 6 kts 190°
2026-04-30 22:03 40.79482 -111.97767 4233 ft 14 kts 176°
2026-04-30 22:03 40.79414 -111.97758 4235 ft 14 kts 174°
2026-04-30 22:04 40.79340 -111.97748 4236 ft 11 kts 174°
2026-04-30 22:05 40.79254 -111.97738 4236 ft 14 kts 175°
2026-04-30 22:05 40.79158 -111.97727 4238 ft 13 kts 175°
2026-04-30 22:05 40.79059 -111.97715 4241 ft 16 kts 175°
2026-04-30 22:05 40.78956 -111.97703 4243 ft 14 kts 175°
2026-04-30 22:06 40.78864 -111.97701 4241 ft 11 kts 198°
2026-04-30 22:06 40.78773 -111.97786 4240 ft 6 kts 208°
2026-04-30 22:06 40.78752 -111.97829 4240 ft 6 kts 250°
2026-04-30 22:07 40.80171 -111.98050 4242 ft 3 kts 313°
2026-04-30 22:07 40.80387 -111.98131 4242 ft 548 kts 281°
2026-04-30 22:08 40.80613 -111.98227 4240 ft 3 kts 266°
2026-04-30 22:08 40.80606 -111.98285 4240 ft 8 kts 250°
2026-04-30 22:08 40.80568 -111.98340 4240 ft 7 kts 215°
2026-04-30 22:08 40.80546 -111.98345 4240 ft 2 kts 179°
2026-04-30 22:09 40.80543 -111.98344 4240 ft 0 kts 178°
2026-04-30 22:09 40.80526 -111.98342 4240 ft 5 kts 174°
2026-04-30 22:09 40.80518 -111.98341 4240 ft 0 kts 174°
2026-04-30 22:09 40.80511 -111.98340 4240 ft 0 kts 175°